Time,TemperatureF,DewpointF,PressureIn,WindDirection,WindDirectionDegrees,WindSpeedMPH,WindSpeedGustMPH,Humidity,HourlyPrecipIn,Conditions,Clouds,dailyrainin,SoftwareType,DateUTC
2013-12-02 00:01:00,40.2,33.9,29.46,South,180,0.0,0.0,78,0.00,,,0.00,WUHU216HW,2013-12-02 06:01:00,
2013-12-02 00:06:00,39.9,33.5,29.46,South,180,0.0,0.0,78,0.00,,,0.00,WUHU216HW,2013-12-02 06:06:00,
2013-12-02 00:11:00,39.9,33.9,29.46,South,180,0.0,0.0,79,0.00,,,0.00,WUHU216HW,2013-12-02 06:11:00,
2013-12-02 00:16:00,39.9,33.9,29.46,South,180,0.0,0.0,79,0.00,,,0.00,WUHU216HW,2013-12-02 06:16:00,
2013-12-02 00:21:00,39.9,33.9,29.46,South,180,0.0,0.0,79,0.00,,,0.00,WUHU216HW,2013-12-02 06:21:00,
2013-12-02 00:26:00,39.9,33.9,29.45,South,180,0.0,0.0,79,0.00,,,0.00,WUHU216HW,2013-12-02 06:26:00,
2013-12-02 00:31:00,39.7,33.7,29.45,North,0,0.0,0.0,79,0.00,,,0.00,WUHU216HW,2013-12-02 06:31:00,
2013-12-02 00:36:00,39.7,34.1,29.45,South,180,0.0,0.0,80,0.00,,,0.00,WUHU216HW,2013-12-02 06:36:00,
2013-12-02 00:41:00,39.7,34.1,29.45,SSW,203,0.0,0.0,80,0.00,,,0.00,WUHU216HW,2013-12-02 06:41:00,
2013-12-02 00:46:00,39.7,34.1,29.45,SSW,203,0.0,0.0,80,0.00,,,0.00,WUHU216HW,2013-12-02 06:46:00,
2013-12-02 00:51:00,39.7,34.1,29.45,South,180,0.0,0.0,80,0.00,,,0.00,WUHU216HW,2013-12-02 06:51:00,
2013-12-02 00:56:00,39.7,34.1,29.45,SW,225,0.0,0.0,80,0.00,,,0.00,WUHU216HW,2013-12-02 06:56:00,
2013-12-02 01:01:00,39.5,33.9,29.44,SSW,203,0.0,0.0,80,0.00,,,0.00,WUHU216HW,2013-12-02 07:01:00,
2013-12-02 01:06:00,39.3,33.7,29.44,SSW,203,0.0,0.0,80,0.00,,,0.00,WUHU216HW,2013-12-02 07:06:00,
2013-12-02 01:11:00,39.3,33.7,29.44,South,180,0.0,0.0,80,0.00,,,0.00,WUHU216HW,2013-12-02 07:11:00,
2013-12-02 01:16:00,39.2,33.4,29.44,SSW,203,0.0,0.0,80,0.00,,,0.00,WUHU216HW,2013-12-02 07:16:00,
2013-12-02 01:21:00,39.0,33.4,29.44,WSW,248,0.0,0.0,80,0.00,,,0.00,WUHU216HW,2013-12-02 07:21:00,
2013-12-02 01:26:00,38.8,33.5,29.44,SSW,203,0.0,0.0,81,0.00,,,0.00,WUHU216HW,2013-12-02 07:26:00,
2013-12-02 01:31:00,38.6,33.3,29.44,SSW,203,0.0,0.0,81,0.00,,,0.00,WUHU216HW,2013-12-02 07:31:00,
2013-12-02 01:36:00,38.4,33.1,29.43,SW,225,0.0,0.0,81,0.00,,,0.00,WUHU216HW,2013-12-02 07:36:00,
2013-12-02 01:41:00,38.1,32.8,29.43,SSW,203,0.0,0.0,81,0.00,,,0.00,WUHU216HW,2013-12-02 07:41:00,
2013-12-02 01:46:00,37.9,32.6,29.43,SSW,203,0.0,0.0,81,0.00,,,0.00,WUHU216HW,2013-12-02 07:46:00,
2013-12-02 01:51:00,37.5,32.2,29.43,SSW,203,0.0,0.0,81,0.00,,,0.00,WUHU216HW,2013-12-02 07:51:00,
2013-12-02 01:56:00,37.2,31.9,29.43,SSW,203,0.0,0.0,81,0.00,,,0.00,WUHU216HW,2013-12-02 07:56:00,
2013-12-02 02:01:00,36.6,31.6,29.43,SW,225,0.0,0.0,82,0.00,,,0.00,WUHU216HW,2013-12-02 08:01:00,
2013-12-02 02:06:00,36.3,31.3,29.43,SW,225,0.0,0.0,82,0.00,,,0.00,WUHU216HW,2013-12-02 08:06:00,
2013-12-02 02:11:00,36.1,31.1,29.42,SSW,203,0.0,0.0,82,0.00,,,0.00,WUHU216HW,2013-12-02 08:11:00,
2013-12-02 02:16:00,35.9,31.2,29.43,SW,225,0.0,0.0,83,0.00,,,0.00,WUHU216HW,2013-12-02 08:16:00,
2013-12-02 02:21:00,35.7,31.0,29.42,SW,225,0.0,0.0,83,0.00,,,0.00,WUHU216HW,2013-12-02 08:21:00,
2013-12-02 02:26:00,35.7,31.0,29.42,SSW,203,0.0,0.0,83,0.00,,,0.00,WUHU216HW,2013-12-02 08:26:00,
2013-12-02 02:31:00,35.4,30.7,29.42,SSW,203,0.0,0.0,83,0.00,,,0.00,WUHU216HW,2013-12-02 08:31:00,
2013-12-02 02:36:00,35.4,30.7,29.42,SSW,203,0.0,0.0,83,0.00,,,0.00,WUHU216HW,2013-12-02 08:36:00,
2013-12-02 02:41:00,35.4,30.7,29.41,SSW,203,0.0,0.0,83,0.00,,,0.00,WUHU216HW,2013-12-02 08:41:00,
2013-12-02 02:46:00,35.4,30.7,29.41,South,180,0.0,0.0,83,0.00,,,0.00,WUHU216HW,2013-12-02 08:46:00,
2013-12-02 02:51:00,35.4,30.7,29.41,SSW,203,0.0,0.0,83,0.00,,,0.00,WUHU216HW,2013-12-02 08:51:00,
2013-12-02 02:56:00,35.4,30.7,29.41,SSW,203,0.0,0.0,83,0.00,,,0.00,WUHU216HW,2013-12-02 08:56:00,
2013-12-02 03:01:00,35.4,30.7,29.42,SW,225,0.0,0.0,83,0.00,,,0.00,WUHU216HW,2013-12-02 09:01:00,
2013-12-02 03:06:00,35.2,30.5,29.41,SW,225,0.0,0.0,83,0.00,,,0.00,WUHU216HW,2013-12-02 09:06:00,
2013-12-02 03:11:00,35.2,30.5,29.41,SW,225,0.0,0.0,83,0.00,,,0.00,WUHU216HW,2013-12-02 09:11:00,
2013-12-02 03:16:00,35.2,30.5,29.41,South,180,0.0,0.0,83,0.00,,,0.00,WUHU216HW,2013-12-02 09:16:00,
2013-12-02 03:21:00,35.2,30.5,29.41,SSW,203,0.0,0.0,83,0.00,,,0.00,WUHU216HW,2013-12-02 09:21:00,
2013-12-02 03:26:00,35.2,30.5,29.40,SSW,203,0.0,0.0,83,0.00,,,0.00,WUHU216HW,2013-12-02 09:26:00,
2013-12-02 03:31:00,35.4,30.7,29.40,SSW,203,0.0,0.0,83,0.00,,,0.00,WUHU216HW,2013-12-02 09:31:00,
2013-12-02 03:36:00,35.4,30.9,29.40,SSW,203,0.0,0.0,84,0.00,,,0.00,WUHU216HW,2013-12-02 09:36:00,
2013-12-02 03:41:00,35.4,30.9,29.40,SSW,203,0.0,0.0,84,0.00,,,0.00,WUHU216HW,2013-12-02 09:41:00,
2013-12-02 03:46:00,35.7,31.3,29.40,SSW,203,0.0,0.0,84,0.00,,,0.00,WUHU216HW,2013-12-02 09:46:00,
2013-12-02 03:51:00,35.7,31.3,29.40,SW,225,0.0,0.0,84,0.00,,,0.00,WUHU216HW,2013-12-02 09:51:00,
2013-12-02 03:56:00,35.7,31.3,29.40,SW,225,0.0,0.0,84,0.00,,,0.00,WUHU216HW,2013-12-02 09:56:00,
2013-12-02 04:01:00,36.1,31.7,29.39,SW,225,0.0,0.0,84,0.00,,,0.00,WUHU216HW,2013-12-02 10:01:00,
2013-12-02 04:06:00,36.1,31.7,29.39,SW,225,0.0,0.0,84,0.00,,,0.00,WUHU216HW,2013-12-02 10:06:00,
2013-12-02 04:11:00,36.3,31.8,29.39,SW,225,0.0,0.0,84,0.00,,,0.00,WUHU216HW,2013-12-02 10:11:00,
2013-12-02 04:16:00,36.3,31.8,29.39,SW,225,0.0,0.0,84,0.00,,,0.00,WUHU216HW,2013-12-02 10:16:00,
2013-12-02 04:21:00,36.5,32.0,29.39,SW,225,0.0,0.0,84,0.00,,,0.00,WUHU216HW,2013-12-02 10:21:00,
2013-12-02 04:26:00,36.5,32.0,29.39,SW,225,0.0,0.0,84,0.00,,,0.00,WUHU216HW,2013-12-02 10:26:00,
2013-12-02 04:31:00,36.5,32.0,29.39,SW,225,0.0,0.0,84,0.00,,,0.00,WUHU216HW,2013-12-02 10:31:00,
2013-12-02 04:36:00,36.6,32.5,29.39,SW,225,0.0,0.0,85,0.00,,,0.00,WUHU216HW,2013-12-02 10:36:00,
2013-12-02 04:41:00,36.6,32.5,29.38,SW,225,0.0,0.0,85,0.00,,,0.00,WUHU216HW,2013-12-02 10:41:00,
2013-12-02 04:46:00,36.8,32.7,29.38,SW,225,0.0,0.0,85,0.00,,,0.00,WUHU216HW,2013-12-02 10:46:00,
2013-12-02 04:51:00,37.0,32.9,29.37,SW,225,0.0,0.0,85,0.00,,,0.00,WUHU216HW,2013-12-02 10:51:00,
2013-12-02 04:56:00,37.0,32.9,29.38,SW,225,0.0,0.0,85,0.00,,,0.00,WUHU216HW,2013-12-02 10:56:00,
2013-12-02 05:01:00,37.2,33.0,29.37,SW,225,0.0,0.0,85,0.00,,,0.00,WUHU216HW,2013-12-02 11:01:00,
2013-12-02 05:06:00,37.2,33.0,29.37,SW,225,0.0,0.0,85,0.00,,,0.00,WUHU216HW,2013-12-02 11:06:00,
2013-12-02 05:11:00,37.2,33.0,29.37,South,180,0.0,0.0,85,0.00,,,0.00,WUHU216HW,2013-12-02 11:11:00,
2013-12-02 05:16:00,37.2,33.0,29.37,South,180,0.0,0.0,85,0.00,,,0.00,WUHU216HW,2013-12-02 11:16:00,
2013-12-02 05:21:00,37.2,33.0,29.36,SSE,158,0.0,0.0,85,0.00,,,0.00,WUHU216HW,2013-12-02 11:21:00,
2013-12-02 05:26:00,37.2,33.0,29.37,South,180,0.0,0.0,85,0.00,,,0.00,WUHU216HW,2013-12-02 11:26:00,
2013-12-02 05:31:00,37.2,33.0,29.37,SSW,203,0.0,0.0,85,0.00,,,0.00,WUHU216HW,2013-12-02 11:31:00,
2013-12-02 05:36:00,37.2,33.0,29.37,SSW,203,0.0,0.0,85,0.00,,,0.00,WUHU216HW,2013-12-02 11:36:00,
2013-12-02 05:41:00,37.2,33.0,29.37,SSW,203,0.0,0.0,85,0.00,,,0.00,WUHU216HW,2013-12-02 11:41:00,
2013-12-02 05:46:00,37.2,33.0,29.37,SW,225,0.0,0.0,85,0.00,,,0.00,WUHU216HW,2013-12-02 11:46:00,
2013-12-02 05:51:00,37.4,33.2,29.37,SSW,203,0.0,0.0,85,0.00,,,0.00,WUHU216HW,2013-12-02 11:51:00,
2013-12-02 05:56:00,37.4,33.2,29.37,SSW,203,0.0,0.0,85,0.00,,,0.00,WUHU216HW,2013-12-02 11:56:00,
2013-12-02 06:01:00,37.5,33.4,29.37,SW,225,0.0,0.0,85,0.00,,,0.00,WUHU216HW,2013-12-02 12:01:00,
2013-12-02 06:06:00,37.5,33.4,29.36,SSW,203,0.0,0.0,85,0.00,,,0.00,WUHU216HW,2013-12-02 12:06:00,
2013-12-02 06:11:00,37.7,33.9,29.37,SW,225,0.0,0.0,86,0.00,,,0.00,WUHU216HW,2013-12-02 12:11:00,
2013-12-02 06:16:00,37.9,34.0,29.37,SW,225,0.0,0.0,86,0.00,,,0.00,WUHU216HW,2013-12-02 12:16:00,
2013-12-02 06:21:00,37.9,34.0,29.36,South,180,0.0,0.0,86,0.00,,,0.00,WUHU216HW,2013-12-02 12:21:00,
2013-12-02 06:26:00,37.9,34.0,29.35,SSE,158,0.0,0.0,86,0.00,,,0.00,WUHU216HW,2013-12-02 12:26:00,
2013-12-02 06:31:00,38.1,34.2,29.35,SSE,158,0.0,0.0,86,0.00,,,0.00,WUHU216HW,2013-12-02 12:31:00,
2013-12-02 06:36:00,38.1,34.2,29.35,South,180,0.0,0.0,86,0.00,,,0.00,WUHU216HW,2013-12-02 12:36:00,
2013-12-02 06:41:00,38.1,34.2,29.35,South,180,0.0,0.0,86,0.00,,,0.00,WUHU216HW,2013-12-02 12:41:00,
2013-12-02 06:46:00,38.1,34.5,29.35,SSE,158,0.0,0.0,87,0.00,,,0.00,WUHU216HW,2013-12-02 12:46:00,
2013-12-02 06:51:00,38.3,34.7,29.35,South,180,0.0,0.0,87,0.00,,,0.00,WUHU216HW,2013-12-02 12:51:00,
2013-12-02 06:59:00,38.3,34.7,29.35,SSW,203,0.0,0.0,87,0.00,,,0.00,WUHU216HW,2013-12-02 12:59:00,
2013-12-02 07:04:00,38.4,34.9,29.35,South,180,0.0,0.0,87,0.00,,,0.00,WUHU216HW,2013-12-02 13:04:00,
2013-12-02 07:09:00,38.4,34.9,29.35,SSW,203,0.0,0.0,87,0.00,,,0.00,WUHU216HW,2013-12-02 13:09:00,
2013-12-02 07:14:00,38.4,34.9,29.35,SSW,203,0.0,0.0,87,0.00,,,0.00,WUHU216HW,2013-12-02 13:14:00,
2013-12-02 07:19:00,38.8,35.2,29.36,SW,225,0.0,0.0,87,0.00,,,0.00,WUHU216HW,2013-12-02 13:19:00,
2013-12-02 07:24:00,38.8,35.2,29.35,SSW,203,0.0,0.0,87,0.00,,,0.00,WUHU216HW,2013-12-02 13:24:00,
2013-12-02 07:29:00,38.8,35.2,29.35,SW,225,0.0,0.0,87,0.00,,,0.00,WUHU216HW,2013-12-02 13:29:00,
2013-12-02 07:34:00,38.8,35.2,29.35,SW,225,0.0,0.0,87,0.00,,,0.00,WUHU216HW,2013-12-02 13:34:00,
2013-12-02 07:39:00,39.0,35.4,29.35,SSW,203,0.0,0.0,87,0.00,,,0.00,WUHU216HW,2013-12-02 13:39:00,
2013-12-02 07:44:00,39.0,35.4,29.35,SSW,203,0.0,0.0,87,0.00,,,0.00,WUHU216HW,2013-12-02 13:44:00,
2013-12-02 07:53:00,39.3,35.7,29.35,SW,225,0.0,0.0,87,0.00,,,0.00,WUHU216HW,2013-12-02 13:53:00,
2013-12-02 07:58:00,39.3,35.7,29.35,SW,225,0.0,0.0,87,0.00,,,0.00,WUHU216HW,2013-12-02 13:58:00,
2013-12-02 08:03:00,39.3,36.0,29.35,SSW,203,0.0,0.0,88,0.00,,,0.00,WUHU216HW,2013-12-02 14:03:00,
2013-12-02 08:08:00,39.5,36.2,29.35,SSW,203,0.0,0.0,88,0.00,,,0.00,WUHU216HW,2013-12-02 14:08:00,
2013-12-02 08:12:00,39.7,36.4,29.35,SSW,203,0.0,0.0,88,0.00,,,0.00,WUHU216HW,2013-12-02 14:12:00,
2013-12-02 08:18:00,39.7,36.4,29.34,SSW,203,0.0,0.0,88,0.00,,,0.00,WUHU216HW,2013-12-02 14:18:00,
2013-12-02 08:23:00,39.7,36.4,29.34,SSW,203,0.0,0.0,88,0.00,,,0.00,WUHU216HW,2013-12-02 14:23:00,
2013-12-02 08:27:00,39.9,36.6,29.34,South,180,0.0,0.0,88,0.00,,,0.00,WUHU216HW,2013-12-02 14:27:00,
2013-12-02 08:32:00,39.9,36.6,29.34,SSW,203,0.0,0.0,88,0.00,,,0.00,WUHU216HW,2013-12-02 14:32:00,
2013-12-02 16:34:00,50.7,42.7,29.22,SSW,203,0.0,0.0,74,0.00,,,0.00,WUHU216HW,2013-12-02 22:34:00,
2013-12-02 16:39:00,50.3,42.3,29.22,South,180,0.0,0.0,74,0.00,,,0.00,WUHU216HW,2013-12-02 22:39:00,
2013-12-02 16:44:00,49.8,42.1,29.22,South,180,0.0,0.0,75,0.00,,,0.00,WUHU216HW,2013-12-02 22:44:00,
2013-12-02 16:49:00,49.6,41.9,29.23,SSE,158,0.0,0.0,75,0.00,,,0.00,WUHU216HW,2013-12-02 22:49:00,
2013-12-02 16:54:00,49.2,41.6,29.23,SSE,158,0.0,0.0,75,0.00,,,0.00,WUHU216HW,2013-12-02 22:54:00,
2013-12-02 16:59:00,49.1,41.4,29.23,SSW,203,0.0,0.0,75,0.00,,,0.00,WUHU216HW,2013-12-02 22:59:00,
2013-12-02 17:04:00,48.7,41.0,29.24,SSW,203,0.0,0.0,75,0.00,,,0.00,WUHU216HW,2013-12-02 23:04:00,
2013-12-02 17:08:00,48.3,41.0,29.24,SSW,203,0.0,0.0,76,0.00,,,0.00,WUHU216HW,2013-12-02 23:08:00,
2013-12-02 17:13:00,48.0,40.7,29.24,SSW,203,0.0,0.0,76,0.00,,,0.00,WUHU216HW,2013-12-02 23:13:00,
2013-12-02 17:18:00,47.8,40.4,29.24,South,180,0.0,0.0,76,0.00,,,0.00,WUHU216HW,2013-12-02 23:18:00,
2013-12-02 17:23:00,47.4,40.5,29.24,SSW,203,0.0,0.0,77,0.00,,,0.00,WUHU216HW,2013-12-02 23:23:00,
2013-12-02 17:28:00,47.1,40.2,29.24,SSW,203,0.0,0.0,77,0.00,,,0.00,WUHU216HW,2013-12-02 23:28:00,
2013-12-02 17:33:00,46.9,39.7,29.24,South,180,0.0,0.0,76,0.00,,,0.00,WUHU216HW,2013-12-02 23:33:00,
2013-12-02 17:38:00,46.5,39.7,29.24,SSE,158,0.0,0.0,77,0.00,,,0.00,WUHU216HW,2013-12-02 23:38:00,
2013-12-02 17:43:00,46.2,39.4,29.24,SSE,158,0.0,0.0,77,0.00,,,0.00,WUHU216HW,2013-12-02 23:43:00,
2013-12-02 17:48:00,46.2,39.7,29.24,SSE,158,0.0,0.0,78,0.00,,,0.00,WUHU216HW,2013-12-02 23:48:00,
2013-12-02 17:54:00,46.0,39.5,29.24,SSE,158,0.0,0.0,78,0.00,,,0.00,WUHU216HW,2013-12-02 23:54:00,
2013-12-02 17:59:00,46.0,39.9,29.24,SSE,158,0.0,0.0,79,0.00,,,0.00,WUHU216HW,2013-12-02 23:59:00,
2013-12-02 18:04:00,46.0,39.9,29.24,South,180,0.0,0.0,79,0.00,,,0.00,WUHU216HW,2013-12-03 00:04:00,
2013-12-02 18:09:00,45.6,39.5,29.24,SSE,158,0.0,0.0,79,0.00,,,0.00,WUHU216HW,2013-12-03 00:09:00,
2013-12-02 18:14:00,45.5,39.3,29.24,SSE,158,0.0,0.0,79,0.00,,,0.00,WUHU216HW,2013-12-03 00:14:00,
2013-12-02 18:19:00,45.5,39.3,29.24,South,180,0.0,0.0,79,0.00,,,0.00,WUHU216HW,2013-12-03 00:19:00,
2013-12-02 18:24:00,45.5,39.7,29.24,South,180,0.0,0.0,80,0.00,,,0.00,WUHU216HW,2013-12-03 00:24:00,
2013-12-02 18:29:00,45.3,39.5,29.24,SSE,158,0.0,0.0,80,0.00,,,0.00,WUHU216HW,2013-12-03 00:29:00,
2013-12-02 18:34:00,45.1,39.3,29.23,South,180,0.0,0.0,80,0.00,,,0.00,WUHU216HW,2013-12-03 00:34:00,
2013-12-02 18:39:00,45.1,39.3,29.24,South,180,0.0,0.0,80,0.00,,,0.00,WUHU216HW,2013-12-03 00:39:00,
2013-12-02 18:43:00,45.1,39.3,29.23,South,180,0.0,0.0,80,0.00,,,0.00,WUHU216HW,2013-12-03 00:43:00,
2013-12-02 18:48:00,44.9,39.2,29.23,SSE,158,0.0,0.0,80,0.00,,,0.00,WUHU216HW,2013-12-03 00:48:00,
2013-12-02 18:53:00,44.7,39.3,29.24,SSE,158,0.0,0.0,81,0.00,,,0.00,WUHU216HW,2013-12-03 00:53:00,
2013-12-02 18:58:00,44.6,39.1,29.24,South,180,0.0,0.0,81,0.00,,,0.00,WUHU216HW,2013-12-03 00:58:00,
2013-12-02 19:03:00,44.4,38.6,29.24,South,180,0.0,0.0,80,0.00,,,0.00,WUHU216HW,2013-12-03 01:03:00,
2013-12-02 19:08:00,44.2,38.4,29.23,South,180,0.0,0.0,80,0.00,,,0.00,WUHU216HW,2013-12-03 01:08:00,
2013-12-02 19:13:00,44.2,38.7,29.23,South,180,0.0,0.0,81,0.00,,,0.00,WUHU216HW,2013-12-03 01:13:00,